TimeMDT,TemperatureF,Dew PointF,Humidity,Sea Level PressureIn,VisibilityMPH,Wind Direction,Wind SpeedMPH,Gust SpeedMPH,PrecipitationIn,Events,Conditions,WindDirDegrees,DateUTC
12:15 AM,33.4,30.0,87,30.16,10.0,NE,3.5,-,N/A,,Clear,50,2012-10-13 06:15:00
12:35 AM,32.0,30.0,92,30.15,10.0,Calm,Calm,-,N/A,,Clear,0,2012-10-13 06:35:00
12:55 AM,32.4,30.2,92,30.15,10.0,Calm,Calm,-,N/A,,Clear,0,2012-10-13 06:55:00
1:15 AM,32.0,29.1,89,30.16,10.0,Calm,Calm,-,N/A,,Clear,0,2012-10-13 07:15:00
1:35 AM,32.0,29.3,90,30.16,10.0,Calm,Calm,-,N/A,,Clear,0,2012-10-13 07:35:00
1:55 AM,31.5,28.9,90,30.15,10.0,Calm,Calm,-,N/A,,Clear,0,2012-10-13 07:55:00
2:15 AM,30.7,28.2,90,30.15,10.0,Calm,Calm,-,N/A,,Clear,0,2012-10-13 08:15:00
2:35 AM,32.0,28.8,88,30.14,10.0,Calm,Calm,-,N/A,,Clear,0,2012-10-13 08:35:00
2:55 AM,32.2,28.4,86,30.14,10.0,NNE,4.6,-,N/A,,Clear,30,2012-10-13 08:55:00
3:15 AM,31.6,28.4,88,30.14,10.0,Calm,Calm,-,N/A,,Clear,0,2012-10-13 09:15:00
3:35 AM,32.0,28.2,86,30.13,10.0,Calm,Calm,-,N/A,,Clear,0,2012-10-13 09:35:00
3:55 AM,31.5,28.4,88,30.14,10.0,Calm,Calm,-,N/A,,Clear,0,2012-10-13 09:55:00
4:15 AM,32.0,29.1,89,30.14,10.0,Calm,Calm,-,N/A,,Scattered Clouds,0,2012-10-13 10:15:00
4:35 AM,29.3,27.5,93,30.14,10.0,Calm,Calm,-,N/A,,Scattered Clouds,0,2012-10-13 10:35:00
4:55 AM,29.1,27.5,94,30.14,10.0,Calm,Calm,-,N/A,,Clear,0,2012-10-13 10:55:00
5:15 AM,29.5,27.3,92,30.15,10.0,Calm,Calm,-,N/A,,Clear,0,2012-10-13 11:15:00
5:35 AM,29.3,26.2,88,30.15,10.0,Calm,Calm,-,N/A,,Clear,0,2012-10-13 11:35:00
5:55 AM,30.0,28.4,94,30.16,10.0,NE,3.5,-,N/A,,Mostly Cloudy,50,2012-10-13 11:55:00
6:15 AM,31.6,28.4,88,30.16,10.0,Calm,Calm,-,N/A,,Overcast,0,2012-10-13 12:15:00
6:35 AM,31.6,28.6,88,30.17,10.0,Calm,Calm,-,N/A,,Overcast,0,2012-10-13 12:35:00
6:55 AM,32.2,29.1,88,30.16,10.0,Calm,Calm,-,N/A,,Mostly Cloudy,0,2012-10-13 12:55:00
7:15 AM,30.6,28.4,92,30.17,10.0,Calm,Calm,-,N/A,,Overcast,0,2012-10-13 13:15:00
7:55 AM,32.0,28.8,88,30.17,10.0,Calm,Calm,-,N/A,,Overcast,0,2012-10-13 13:55:00
8:35 AM,32.9,30.0,89,30.19,10.0,Calm,Calm,-,N/A,,Overcast,0,2012-10-13 14:35:00
8:55 AM,34.2,31.5,90,30.19,10.0,Calm,Calm,-,N/A,,Overcast,0,2012-10-13 14:55:00
9:35 AM,36.7,30.6,78,30.19,10.0,Calm,Calm,-,N/A,,Overcast,0,2012-10-13 15:35:00
9:55 AM,37.2,29.7,74,30.19,10.0,Calm,Calm,-,N/A,,Scattered Clouds,0,2012-10-13 15:55:00
10:15 AM,37.0,29.5,74,30.20,10.0,Calm,Calm,-,N/A,,Scattered Clouds,0,2012-10-13 16:15:00
10:35 AM,38.1,30.9,75,30.19,10.0,Calm,Calm,-,N/A,,Scattered Clouds,0,2012-10-13 16:35:00
10:55 AM,38.7,31.1,74,30.19,10.0,Calm,Calm,-,N/A,,Mostly Cloudy,0,2012-10-13 16:55:00
11:35 AM,39.4,30.7,71,30.19,10.0,SSW,3.5,-,N/A,,Overcast,200,2012-10-13 17:35:00
11:55 AM,40.1,31.1,70,30.20,10.0,Calm,Calm,-,N/A,,Overcast,0,2012-10-13 17:55:00
12:15 PM,41.7,32.2,69,30.20,10.0,East,3.5,-,N/A,,Overcast,90,2012-10-13 18:15:00
12:35 PM,42.1,32.0,67,30.20,10.0,Calm,Calm,-,N/A,,Overcast,0,2012-10-13 18:35:00
12:55 PM,41.9,32.0,68,30.20,10.0,Calm,Calm,-,N/A,,Overcast,0,2012-10-13 18:55:00
1:15 PM,43.2,32.9,67,30.19,10.0,Calm,Calm,-,N/A,,Overcast,0,2012-10-13 19:15:00
1:35 PM,43.7,32.7,65,30.19,10.0,Calm,Calm,-,N/A,,Overcast,0,2012-10-13 19:35:00
2:15 PM,44.2,32.2,63,30.19,10.0,Calm,Calm,-,N/A,,Overcast,0,2012-10-13 20:15:00
2:35 PM,44.8,32.0,61,30.19,10.0,Calm,Calm,-,N/A,,Overcast,0,2012-10-13 20:35:00
2:55 PM,45.5,32.2,60,30.19,10.0,SSE,3.5,-,N/A,,Overcast,160,2012-10-13 20:55:00
3:15 PM,46.9,32.9,58,30.19,10.0,Calm,Calm,-,N/A,,Overcast,0,2012-10-13 21:15:00
3:35 PM,47.3,32.7,57,30.19,10.0,Calm,Calm,-,N/A,,Mostly Cloudy,0,2012-10-13 21:35:00
3:55 PM,48.0,32.0,54,30.19,10.0,Calm,Calm,-,N/A,,Scattered Clouds,0,2012-10-13 21:55:00
4:15 PM,48.7,32.4,53,30.20,10.0,West,3.5,-,N/A,,Scattered Clouds,260,2012-10-13 22:15:00
4:35 PM,49.6,32.5,52,30.20,10.0,SSW,4.6,-,N/A,,Scattered Clouds,200,2012-10-13 22:35:00
4:55 PM,49.8,32.2,51,30.20,10.0,Calm,Calm,-,N/A,,Clear,0,2012-10-13 22:55:00
5:15 PM,50.5,32.7,51,30.21,10.0,ESE,4.6,-,N/A,,Clear,120,2012-10-13 23:15:00
5:35 PM,50.0,32.4,51,30.22,10.0,Calm,Calm,-,N/A,,Clear,0,2012-10-13 23:35:00
6:15 PM,49.1,32.7,53,30.23,10.0,Calm,Calm,-,N/A,,Scattered Clouds,0,2012-10-14 00:15:00
6:35 PM,46.8,34.7,63,30.24,10.0,East,3.5,-,N/A,,Scattered Clouds,100,2012-10-14 00:35:00
6:55 PM,44.4,34.3,68,30.25,10.0,East,3.5,-,N/A,,Clear,80,2012-10-14 00:55:00
8:15 PM,41.5,33.1,72,30.28,10.0,Calm,Calm,-,N/A,,Clear,0,2012-10-14 02:15:00
8:35 PM,39.2,33.3,79,30.29,10.0,NE,3.5,-,N/A,,Clear,40,2012-10-14 02:35:00
8:55 PM,38.8,32.9,79,30.29,10.0,Calm,Calm,-,N/A,,Clear,0,2012-10-14 02:55:00
9:15 PM,37.6,32.9,83,30.30,10.0,Calm,Calm,-,N/A,,Clear,0,2012-10-14 03:15:00
10:15 PM,34.5,32.2,91,30.32,10.0,Calm,Calm,-,N/A,,Clear,0,2012-10-14 04:15:00
10:35 PM,35.2,32.9,91,30.32,10.0,Calm,Calm,-,N/A,,Clear,0,2012-10-14 04:35:00
11:15 PM,35.6,32.0,87,30.33,10.0,Calm,Calm,-,N/A,,Clear,0,2012-10-14 05:15:00
11:35 PM,33.6,31.6,92,30.34,10.0,Calm,Calm,-,N/A,,Clear,0,2012-10-14 05:35:00
11:55 PM,33.1,32.0,96,30.34,10.0,Calm,Calm,-,N/A,,Clear,0,2012-10-14 05:55:00